TITAN 3C TRANSTAGE DEB, 2789

Orbit data source: Space-Track

TITAN 3C TRANSTAGE DEB, 2789 is space debris in LEO originally from a launch on Fri, 15 Oct 1965 UTC launched from the Air Force Eastern Test Range (AFETR). Debris objects in space refer to the collection of defunct objects orbiting the Earth. Examples of debris include non-operational satellites, rocket bodies, and fragments generated from explosions, collisions, or faulty payload assembly.

Not visible in the next 10 days
Identifier
2789, 1965-082KR
Orbit
LEO
Country
Flag of USUS
Related business
Manufacturer
Unknown
Mission
Spacecraft
Bus & Motor
Unknown
Mass
Unknown
Launch date (UTC)
1965-10-15 (60 years ago)
Launch vehicle
Unknown
Launch site
Air Force Eastern Test Range (AFETR)
Object type
Payload
Rocket body
Debris
Shape & HBR
Unknown shape, 0.1 m
Radar Cross Section
Small (<0.1 m²)

Expand to show TLE details & history
Last TLE update: 2 days ago

TLE from 2 days ago
0 TITAN 3C TRANSTAGE DEB
1 02789U 65082KR  25311.55000684  .00646898  00000-0  62199-2 0  9997
2 02789  32.2597  37.1390 0024509  86.7934 273.5547 15.63199708 47706
Epoch: 2025-11-07T13:12Z
TLE epoch observation values (Epoch: 2025-11-07T13:12:00.590Z)
Latitude
Longitude
152.14418°
Altitude
376.037 km
Speed
7.687 km/s
True Right ascension
02h 28m 33s
True Declination
0° 00' 00"
Sunlit
Object was in full shadow at epoch
Visualization orbit readout
Latitude
Unknown
Longitude
Unknown
Altitude
Unknown
Speed
Unknown
Apparent Right ascension
Unknown
Apparent Declination
Unknown
Sunlit
N/A
Visualization observer readout
Local Sidereal Time
23:40:45
Azimuth
Unknown
Elevation
Unknown
Doppler factor
Unknown
Orbital elements
Apogee altitude
398.729 km
Perigee altitude
365.591 km
Semi-major axis
6,760.297 km
Eccentricity
0.00245
Inclination
32.2597°
RAAN
37.139°
Arg. of periapsis
86.7934°
True anomaly
273.27434°
Mean anomaly
273.5547°
Eccentric anomaly
273.41452°
Mean motion
3.90476 °/min
Orbital period
92.2 mins
BSTAR
0.0062199

Documentation

Showing up to 5 results
|